Location: El Bakhil
(32.7726°N, 5.5387°W)
Time: 11:30:20
(UTC+00:00)

DMSP B5D2-2 - Pass Details

Date: 03 March 2021
Orbit: 789 x 807 km, 98.3° (Epoch: 16 April)

Event Time Altitude Azimuth Distance (km) Brightness Sun altitude
Rises 19:51:16 0° 10° (N) 3,298 7.2 -19.7°
Reaches altitude 10° 19:53:36 10° 9° (N) 2,363 6.5 -20.2°
Maximum altitude 19:58:49 78° 284° (WNW) 810 4.1 -21.3°
Drops below altitude 10° 20:03:59 10° 198° (SSW) 2,343 6.6 -22.4°
Sets 20:06:18 0° 197° (SSW) 3,268 7.4 -22.9°
